TimeCST,TemperatureF,Dew PointF,Humidity,Sea Level PressureIn,VisibilityMPH,Wind Direction,Wind SpeedMPH,Gust SpeedMPH,PrecipitationIn,Events,Conditions,WindDirDegrees,DateUTC
12:53 AM,51.1,43.0,74,29.98,10.0,SSE,10.4,-,N/A,,Clear,160,2013-03-04 06:53:00
1:53 AM,52.0,44.1,74,29.97,10.0,South,8.1,-,N/A,,Clear,170,2013-03-04 07:53:00
2:53 AM,50.0,44.1,80,29.94,10.0,SSE,8.1,-,N/A,,Clear,150,2013-03-04 08:53:00
3:53 AM,50.0,45.0,83,29.91,10.0,SSE,10.4,-,N/A,,Clear,160,2013-03-04 09:53:00
4:53 AM,48.9,45.0,86,29.90,10.0,SSE,6.9,-,N/A,,Clear,150,2013-03-04 10:53:00
5:53 AM,51.1,46.9,86,29.91,10.0,South,6.9,-,N/A,,Clear,170,2013-03-04 11:53:00
6:53 AM,53.1,48.9,86,29.89,10.0,SSE,8.1,-,N/A,,Clear,160,2013-03-04 12:53:00
7:53 AM,57.0,51.1,81,29.89,10.0,South,10.4,-,N/A,,Clear,170,2013-03-04 13:53:00
8:53 AM,63.0,52.0,67,29.90,10.0,SSW,13.8,24.2,N/A,,Partly Cloudy,200,2013-03-04 14:53:00
9:53 AM,66.0,53.1,63,29.88,10.0,SSW,13.8,29.9,N/A,,Mostly Cloudy,200,2013-03-04 15:53:00
10:20 AM,69.8,53.6,56,29.88,10.0,SSW,13.8,25.3,N/A,,Mostly Cloudy,200,2013-03-04 16:20:00
10:53 AM,72.0,53.1,51,29.86,10.0,SSW,16.1,33.4,N/A,,Partly Cloudy,200,2013-03-04 16:53:00
11:53 AM,75.9,53.1,45,29.84,10.0,SSW,20.7,29.9,N/A,,Clear,200,2013-03-04 17:53:00
12:53 PM,75.9,52.0,43,29.81,10.0,SSW,19.6,24.2,N/A,,Clear,200,2013-03-04 18:53:00
1:53 PM,78.1,51.1,39,29.77,10.0,SSW,17.3,31.1,N/A,,Clear,200,2013-03-04 19:53:00
2:53 PM,78.1,52.0,40,29.75,10.0,SSW,17.3,23.0,N/A,,Clear,200,2013-03-04 20:53:00
3:53 PM,80.1,52.0,38,29.73,10.0,SSW,13.8,21.9,N/A,,Clear,210,2013-03-04 21:53:00
4:53 PM,78.1,52.0,40,29.73,10.0,South,9.2,21.9,N/A,,Clear,190,2013-03-04 22:53:00
5:53 PM,77.0,54.0,45,29.73,10.0,South,15.0,23.0,N/A,,Clear,180,2013-03-04 23:53:00
6:53 PM,72.0,57.0,59,29.74,10.0,South,11.5,23.0,N/A,,Clear,170,2013-03-05 00:53:00
7:53 PM,69.1,57.0,65,29.76,10.0,SSE,13.8,19.6,N/A,,Clear,160,2013-03-05 01:53:00
8:53 PM,66.9,57.0,70,29.78,10.0,SSE,11.5,-,N/A,,Clear,160,2013-03-05 02:53:00
9:53 PM,64.9,57.0,75,29.80,10.0,SSE,9.2,-,N/A,,Clear,150,2013-03-05 03:53:00
10:53 PM,64.9,57.0,75,29.81,10.0,SSE,6.9,-,N/A,,Mostly Cloudy,160,2013-03-05 04:53:00
11:53 PM,64.0,57.9,80,29.80,10.0,South,6.9,-,N/A,,Overcast,170,2013-03-05 05:53:00